Astoria, OR

12:55 AM PST on November 21, 2017 (GMT -0800)
Astoria Regional

Weather History for KAST - July, 2013

Change the Weather History Date:

Thursday, July 4, 2013

  Actual Average Record
Temperature  
Mean Temperature 63 °F 59 °F  
Max Temperature 66 °F 66 °F 84 °F (1975)
Min Temperature 59 °F 52 °F 45 °F (1957)
Degree Days  
Heating Degree Days 2 6  
Month to date heating degree days 7 24  
Since 1 June heating degree days 188 266  
Since 1 July heating degree days 7 24  
Cooling Degree Days 0 0  
Month to date cooling degree days 0 0  
Year to date cooling degree days 4 0  
Since 1 June cooling degree days 3 0  
Growing Degree Days 12 (Base 50)    
Moisture  
Dew Point 52 °F    
Average Humidity 71    
Maximum Humidity 75    
Minimum Humidity 67    
Precipitation  
Precipitation 0.00 in 0.05 in 0.58 in (1902)
Month to date precipitation 0.00 0.19  
Year to date precipitation 34.97 36.10  
Snow  
Snow 0.00 in - - ()
Month to date snowfall 0.0  
Since 1 June snowfall 0.0  
Snow Depth 0.00 in    
Sea Level Pressure  
Sea Level Pressure 30.14 in    
Wind  
Wind Speed 13 mph (NW)    
Max Wind Speed 17 mph    
Max Gust Speed 23 mph    
Visibility 10 miles    
Events      
T = Trace of Precipitation, MM = Missing Value Source: NWS Daily Summary

Daily Weather History Graph

Daily Weather History Graph

Search for Another Location

Airport or City:

Trip Planner

Search our weather history database for the weather conditions in past years. The results will help you decide how hot, cold, wet, or windy it might be!

Date:

Astronomy

Jul. 04, 2013 Rise Set
Actual Time 5:30 AM PDT 9:09 PM PDT
Civil Twilight 4:51 AM PDT 9:47 PM PDT
Nautical Twilight 4:00 AM PDT 10:38 PM PDT
Astronomical Twilight 2:50 AM PDT 11:48 PM PDT
Moon 2:55 AM PDT (7/4) 6:15 PM PDT (7/4)
Length of Visible Light 16h 55m
Length of Day
15h 39m
Waning Crescent, 11% of the Moon is Illuminated
Jul 4
Waning Crescent
Jul 8
New
Jul 15
First Quarter
Jul 22
Full
Jul 29
Last Quarter

Hourly Weather History & Observations

Time (PDT) Temp. Dew Point Humidity Pressure Visibility Wind Dir Wind Speed Gust Speed Precip Events Conditions
12:19 AM 60.8 °F 51.8 °F 72% 30.15 in 10.0 mi NW 15.0 mph 26.5 mph N/A   Overcast
12:39 AM 60.8 °F 51.8 °F 72% 30.15 in 10.0 mi NNW 13.8 mph - N/A   Overcast
12:55 AM 60.1 °F 51.1 °F 72% 30.15 in 10.0 mi NNW 13.8 mph - N/A   Overcast
1:55 AM 60.1 °F 51.1 °F 72% 30.15 in 10.0 mi NNW 12.7 mph - N/A   Overcast
2:55 AM 60.1 °F 51.1 °F 72% 30.14 in 10.0 mi NNW 11.5 mph - N/A   Overcast
3:55 AM 60.1 °F 51.1 °F 72% 30.14 in 10.0 mi NNW 11.5 mph - N/A   Overcast
4:55 AM 60.1 °F 50.0 °F 69% 30.15 in 10.0 mi NNW 13.8 mph - N/A   Overcast
5:55 AM 59.0 °F 52.0 °F 78% 30.15 in 10.0 mi NW 10.4 mph - N/A   Overcast
6:55 AM 60.1 °F 51.1 °F 72% 30.16 in 10.0 mi NNW 10.4 mph - N/A   Overcast
7:41 AM 60.8 °F 51.8 °F 72% 30.16 in 10.0 mi NNW 9.2 mph - N/A   Overcast
7:48 AM 62.6 °F 51.8 °F 68% 30.16 in 10.0 mi NNW 12.7 mph - N/A   Overcast
7:55 AM 61.0 °F 52.0 °F 72% 30.16 in 10.0 mi NW 12.7 mph - N/A   Overcast
8:55 AM 62.1 °F 51.1 °F 67% 30.17 in 10.0 mi NW 11.5 mph - N/A   Partly Cloudy
9:55 AM 63.0 °F 52.0 °F 67% 30.17 in 10.0 mi NW 10.4 mph - N/A   Mostly Cloudy
10:55 AM 63.0 °F 52.0 °F 67% 30.17 in 10.0 mi NW 11.5 mph - N/A   Overcast
11:55 AM 64.0 °F 53.1 °F 67% 30.17 in 10.0 mi NW 11.5 mph - N/A   Overcast
12:55 PM 64.0 °F 53.1 °F 67% 30.17 in 10.0 mi NW 13.8 mph - N/A   Overcast
1:55 PM 64.9 °F 53.1 °F 65% 30.16 in 10.0 mi NW 13.8 mph - N/A   Overcast
2:55 PM 64.0 °F 53.1 °F 67% 30.16 in 10.0 mi NNW 12.7 mph - N/A   Overcast
3:55 PM 63.0 °F 53.1 °F 70% 30.15 in 10.0 mi NW 13.8 mph - N/A   Overcast
4:55 PM 63.0 °F 53.1 °F 70% 30.14 in 10.0 mi NW 15.0 mph - N/A   Overcast
5:55 PM 63.0 °F 53.1 °F 70% 30.13 in 10.0 mi NW 11.5 mph - N/A   Overcast
6:55 PM 63.0 °F 52.0 °F 67% 30.12 in 10.0 mi NW 16.1 mph 20.7 mph N/A   Mostly Cloudy
7:55 PM 61.0 °F 52.0 °F 72% 30.12 in 10.0 mi NW 15.0 mph - N/A   Scattered Clouds
8:55 PM 61.0 °F 53.1 °F 75% 30.11 in 10.0 mi NNW 15.0 mph - N/A   Overcast
9:55 PM 61.0 °F 54.0 °F 78% 30.12 in 10.0 mi NNW 13.8 mph - N/A   Overcast
10:09 PM 60.8 °F 53.6 °F 77% 30.12 in 10.0 mi NNW 12.7 mph - N/A   Overcast
10:55 PM 61.0 °F 53.1 °F 75% 30.11 in 10.0 mi NW 11.5 mph - N/A   Overcast
11:55 PM 60.1 °F 53.1 °F 78% 30.10 in 10.0 mi NNW 11.5 mph - N/A   Overcast